Wind_Speed
12 13 14 15 15 14 15 16 17 17 15 13 11 10 9 8 7 6 5 5 6 7 7 8 9 9 9 10 11 13 14 14 13 12 12 11 11 10 8 7 8 9 10 9 8 9 11 10 9 9 10 10 10 10 10 10 9 9 8 8 8 8 8
13 13 13 14 14 15 15 16 17 17 16 14 11 10 9 9 7 5 4 4 4 4 5 6 6 6 6 6 7 9 12 12 12 11 11 10 10 10 8 7 7 7 7 7 8 8 9 9 9 10 10 11 11 11 10 9 9 8 8 8 8 8 9
15 15 15 14 14 15 15 15 16 17 16 14 12 10 9 8 7 6 4 3 2 2 3 3 3 3 3 3 4 6 8 9 10 11 11 10 9 9 9 8 7 7 6 7 7 8 8 8 9 10 10 11 10 9 8 8 8 8 8 8 8 8 8
17 17 17 16 15 15 15 15 15 16 15 14 13 10 8 7 7 5 3 2 0 1 1 1 2 2 2 2 2 2 4 5 6 8 10 10 10 9 9 8 8 7 7 6 7 7 7 8 8 9 9 8 7 6 6 6 7 8 7 7 7 7 6
20 20 20 19 17 16 15 15 16 16 14 13 12 11 8 6 5 4 2 1 1 2 2 2 2 1 1 2 2 1 1 1 2 3 4 6 6 6 6 6 6 5 5 4 5 5 5 6 6 5 5 5 4 4 4 4 5 6 6 6 6 6 6
22 22 22 21 20 18 15 14 14 15 13 12 11 10 8 5 3 2 2 1 1 3 3 3 3 3 3 3 3 3 3 3 3 4 3 3 3 2 3 3 3 3 3 2 2 2 2 2 2 2 3 3 4 3 4 4 5 6 6 7 7 8 8
24 24 23 24 23 19 15 13 12 13 12 10 10 8 6 4 2 2 2 2 2 2 3 3 4 4 4 4 4 4 3 3 3 4 4 4 4 4 3 3 3 3 3 2 1 1 1 1 2 3 3 4 4 4 4 4 4 5 5 6 6 6 7
25 23 24 27 24 18 15 12 11 12 11 9 8 6 4 3 2 3 3 3 2 2 2 3 3 4 4 4 4 4 3 3 2 2 3 3 3 3 3 3 3 2 2 2 2 2 2 1 1 2 2 2 2 2 1 1 1 2 2 2 3 3 3
23 23 25 24 20 16 14 11 11 10 9 8 6 3 2 3 3 4 5 4 3 3 4 5 6 6 7 7 7 7 6 6 5 5 5 5 5 5 5 5 5 4 4 4 4 3 3 3 3 2 1 1 1 0 1 0 0 1 1 2 2 3 3
21 21 22 18 15 16 15 12 11 9 6 6 4 1 3 4 5 5 6 6 6 7 8 10 11 12 12 12 12 11 11 10 10 9 9 9 9 8 7 7 7 6 5 5 4 4 4 4 4 3 2 2 1 1 1 1 1 2 2 3 4 4 4
16 18 18 15 14 16 15 12 10 7 4 3 2 2 4 5 7 7 8 10 11 12 12 13 14 14 15 14 14 13 13 13 12 11 11 11 10 9 8 7 7 6 5 4 3 3 2 2 2 2 2 1 1 1 2 2 3 3 4 5 6 7 7
13 15 15 14 15 17 16 12 9 7 4 3 3 4 6 7 9 10 11 13 14 14 14 14 14 14 14 15 14 14 13 12 12 11 10 10 9 8 7 6 5 5 4 3 3 1 1 1 1 1 1 2 2 3 4 5 6 6 7 8 8 9 10
10 11 13 14 14 17 16 13 10 8 5 5 6 7 9 9 10 11 12 13 14 14 14 14 14 14 13 13 14 13 12 11 11 10 8 7 6 5 5 4 3 2 2 2 2 2 3 3 3 4 4 4 5 6 7 8 8 9 9 10 10 11 11
9 10 11 12 12 15 16 14 14 12 8 8 8 9 11 11 11 11 12 13 13 13 14 14 14 13 13 13 12 12 11 10 9 8 6 5 4 2 1 1 1 2 3 4 4 5 5 6 6 6 6 7 7 8 9 10 11 11 12 12 12 13 13
8 10 11 11 10 12 14 15 17 16 12 11 10 10 12 13 13 13 13 13 13 13 13 13 13 13 12 12 11 10 10 9 8 6 5 4 3 3 4 4 5 5 6 6 7 7 7 8 8 9 9 9 10 10 11 12 13 14 14 15 15 15 15
7 8 9 10 9 10 12 15 19 19 16 15 14 12 13 14 15 16 16 16 16 15 15 14 13 13 12 11 10 10 9 8 8 7 6 6 6 6 7 8 8 9 9 10 10 10 10 10 11 11 12 12 12 12 12 13 14 15 16 16 17 17 18
8 8 8 10 9 11 13 16 19 20 19 18 17 16 15 15 15 16 17 17 17 17 17 16 15 14 13 12 12 11 11 10 10 9 9 9 9 9 10 10 11 11 12 12 13 13 14 14 14 14 14 14 14 14 14 14 15 16 17 17 18 19 19
11 9 9 10 11 13 16 19 20 21 20 20 19 19 18 18 17 18 18 18 18 18 17 17 16 16 16 15 15 14 13 13 12 11 11 11 11 12 12 12 13 14 14 15 15 16 16 17 17 17 17 17 17 17 18 18 18 18 19 19 20 21 22
14 12 11 11 12 14 17 20 22 22 22 22 22 22 21 21 21 21 21 21 20 19 19 18 17 17 17 17 16 16 15 13 12 12 12 12 13 14 14 14 15 16 18 19 19 18 18 18 18 19 20 20 20 20 20 20 20 21 22 22 23 23 24
17 16 15 14 14 15 17 20 23 24 25 25 25 25 25 25 26 26 25 24 22 21 20 20 19 19 19 18 18 17 16 15 14 13 13 14 15 17 17 17 16 17 19 19 18 17 17 18 19 19 20 21 21 21 22 22 23 25 26 27 27 28 28
19 19 18 16 15 15 17 20 23 25 26 27 28 28 28 30 31 30 27 26 24 22 21 21 21 21 21 20 20 19 18 17 16 16 17 18 19 20 20 20 19 19 19 18 17 17 18 19 20 21 22 23 23 24 25 27 28 29 30 31 32 32 33
20 21 20 19 17 16 17 20 24 26 28 28 29 30 31 33 34 34 32 29 27 25 24 24 24 24 23 22 22 22 21 20 20 20 20 21 21 21 21 21 20 19 19 19 19 20 20 21 23 24 26 27 27 28 29 29 29 30 32 33 34 34 34
19 20 20 20 19 18 18 21 25 28 30 31 32 33 35 35 36 37 37 34 31 30 29 28 27 27 26 25 25 24 23 21 22 23 22 21 21 21 21 20 18 16 17 19 20 21 22 23 25 26 27 28 29 29 30 30 30 31 32 33 34 34 34
18 19 20 20 21 21 21 22 25 28 30 31 33 35 37 39 38 38 38 37 37 36 34 33 33 31 29 27 27 26 24 22 22 23 22 20 20 20 19 18 16 16 17 18 20 21 23 25 25 26 28 29 29 30 31 32 32 32 33 34 34 33 32
19 20 21 21 22 22 21 23 24 26 27 28 30 33 35 37 39 38 37 37 39 40 39 39 37 32 28 26 27 26 24 23 23 22 20 19 19 19 18 16 15 16 17 18 19 21 23 25 26 27 28 29 30 32 33 33 34 34 34 34 34 33 31
21 21 22 22 23 22 22 22 23 24 24 25 26 28 29 31 34 34 34 35 37 40 41 41 37 31 28 27 26 24 24 23 22 20 19 19 19 19 17 16 16 17 18 19 21 22 24 26 27 28 30 31 32 32 33 34 34 34 34 33 33 33 33
22 22 22 23 23 23 23 23 23 23 24 24 24 24 24 25 27 28 30 31 33 35 39 40 38 34 30 28 25 24 24 22 20 18 18 18 18 18 17 17 19 20 22 23 24 25 26 27 28 29 30 31 32 32 33 33 33 33 33 34 34 35 35
25 24 24 23 23 24 24 24 24 24 24 23 23 22 22 22 22 24 25 25 26 28 32 34 33 31 27 25 25 25 23 21 19 19 19 19 19 19 20 21 22 23 24 25 25 26 26 27 29 29 30 30 31 31 32 33 33 34 34 35 35 36 37
28 27 26 25 25 25 26 26 26 25 24 23 22 22 21 21 21 22 22 21 22 25 27 26 24 24 24 24 24 24 22 20 20 20 20 21 21 22 23 23 23 24 25 26 26 27 27 28 28 29 29 30 31 32 33 34 35 35 36 36 36 37 38
29 29 28 27 26 26 26 27 27 26 24 23 22 22 22 21 21 21 21 21 22 24 24 22 19 21 24 24 24 23 21 21 21 21 22 22 23 24 24 25 26 26 27 28 28 28 28 29 29 30 31 32 33 34 35 35 36 36 37 37 38 38 39
28 29 29 29 28 27 26 26 26 26 24 24 23 22 22 21 22 22 21 21 21 21 21 21 20 21 23 24 23 23 22 22 22 23 23 23 24 24 25 26 27 28 29 29 30 30 30 30 31 31 32 33 34 34 35 36 36 37 37 38 39 40 41
25 27 29 30 30 29 28 27 26 26 25 25 24 23 22 22 22 23 22 22 22 22 22 22 22 23 23 24 24 24 24 24 24 23 23 23 24 25 26 27 28 29 29 29 30 30 31 31 31 31 31 32 33 34 35 36 37 38 39 40 41 41 42
23 25 28 30 31 31 30 28 26 27 27 26 24 23 23 23 22 23 23 23 23 24 24 24 24 24 24 25 25 25 25 24 24 23 23 24 25 27 28 29 30 30 30 30 30 31 31 31 31 31 32 33 34 35 36 37 39 40 41 42 43 43 44
22 22 25 29 32 33 32 30 28 27 27 26 25 24 24 24 24 24 24 24 24 23 23 24 24 24 24 25 25 25 25 25 25 25 25 26 28 29 30 31 32 32 32 32 32 32 32 32 32 32 33 35 36 37 39 40 41 43 44 44 45 45 45
23 22 24 27 30 32 33 34 32 30 29 28 27 26 25 26 26 26 26 25 24 24 23 24 24 24 25 25 25 25 25 25 26 27 27 29 30 31 32 33 34 34 34 34 34 34 34 34 35 35 36 37 38 40 41 42 43 44 45 45 45 45 45
27 26 26 27 29 31 32 33 34 34 32 32 31 31 30 29 28 27 26 25 24 24 25 25 25 25 25 25 25 25 26 27 28 29 30 31 33 33 34 35 35 35 36 36 36 36 36 36 37 37 38 39 40 41 42 42 43 43 44 44 44 44 43
33 31 29 29 31 33 33 32 33 33 34 35 35 35 34 33 31 29 27 26 26 27 27 27 27 26 26 26 27 28 29 30 31 32 33 34 35 35 36 36 37 37 38 38 38 38 37 37 37 37 38 40 42 43 43 43 43 44 44 43 42 42 41
Wind_Direction
305 308 311 317 325 327 325 328 334 335 332 330 324 312 300 296 297 299 295 282 269 259 253 251 250 252 252 250 248 243 240 236 228 225 230 233 236 240 240 239 242 245 241 234 232 235 236 236 244 255 265 275 281 285 289 292 292 291 284 273 266 261 260
299 299 299 302 311 318 321 321 326 328 327 326 325 316 301 293 291 295 296 285 269 256 249 246 246 248 250 248 246 242 239 238 231 226 230 234 235 238 244 245 242 239 235 235 234 234 238 246 255 263 271 277 281 283 286 289 291 289 285 278 272 267 265
290 290 290 291 298 307 312 313 317 321 322 323 324 321 311 301 296 293 296 290 259 233 228 232 227 224 228 228 232 234 234 236 234 230 232 237 239 239 244 248 247 246 243 242 242 241 246 252 259 268 275 280 281 283 284 285 286 287 287 284 280 278 274
287 287 287 287 291 300 305 308 311 314 317 320 322 321 314 305 298 292 293 302 277 132 147 166 176 181 184 183 193 213 223 227 230 233 237 244 250 250 250 251 253 252 245 239 240 245 252 258 264 271 276 280 282 285 289 290 289 289 292 293 292 291 290
287 290 290 289 289 291 296 301 306 311 315 320 321 320 315 305 294 281 269 272 77 81 90 103 113 119 113 98 92 89 112 149 176 207 221 232 240 243 241 237 233 232 227 225 233 241 251 257 265 273 280 285 288 293 296 293 287 287 289 291 293 293 292
282 287 289 291 289 284 286 295 302 309 315 321 322 319 315 304 282 251 220 178 106 88 86 85 83 78 72 70 70 70 72 78 86 97 114 130 146 152 152 153 156 159 156 163 182 206 235 262 282 294 297 295 292 288 284 278 275 276 279 280 282 283 284
277 284 289 294 290 278 278 289 298 308 314 318 322 318 308 295 263 219 197 172 118 90 81 75 72 68 65 66 66 65 66 68 73 80 86 92 99 103 106 110 115 121 128 141 161 194 239 279 290 287 285 284 283 277 276 279 277 276 277 278 280 282 286
273 282 287 291 287 272 270 279 286 301 312 316 321 314 292 269 225 195 181 166 134 99 83 77 74 71 73 76 78 81 85 91 97 100 102 112 121 125 131 138 141 150 161 174 189 205 218 231 245 254 254 257 271 281 283 297 297 293 300 302 299 301 303
273 279 282 287 283 266 265 270 270 284 304 313 315 299 249 207 185 178 166 155 141 126 113 103 97 94 93 93 95 97 98 102 107 112 117 123 128 132 139 143 142 147 155 156 161 163 162 160 153 158 171 162 159 130 88 87 27 333 331 331 325 322 321
275 279 282 283 274 258 259 262 258 264 289 302 301 258 190 170 164 161 154 144 134 126 118 111 107 104 101 100 100 99 98 99 99 102 106 108 111 115 119 124 123 126 132 134 139 144 147 149 147 150 144 125 119 83 60 33 356 342 330 326 320 317 316
269 273 277 273 255 246 252 257 248 242 252 274 269 174 160 154 151 149 144 136 128 124 119 115 112 110 109 107 104 103 102 100 98 98 100 102 104 105 106 110 112 114 116 116 119 124 131 138 138 138 133 115 73 28 18 360 355 349 339 336 330 325 323
261 270 273 267 250 242 250 254 237 223 215 201 179 163 154 150 148 144 140 136 132 129 126 122 120 117 116 114 112 111 108 105 105 104 102 102 105 106 107 108 111 115 118 117 119 132 151 191 231 266 298 321 331 338 340 339 339 337 334 335 333 331 328
261 273 273 265 248 238 244 242 220 212 202 182 175 167 158 154 152 147 143 141 138 137 135 133 131 129 126 125 124 124 123 118 118 118 116 114 113 113 113 116 123 134 157 174 189 215 229 243 255 264 279 295 307 315 319 320 321 320 320 322 323 323 323
259 266 267 262 248 235 238 233 213 203 197 193 189 175 166 163 160 157 154 151 148 147 145 144 144 144 143 141 140 141 143 142 141 142 144 145 146 151 165 199 226 239 248 244 243 246 246 253 260 267 274 282 290 298 302 303 305 305 307 309 310 312 312
262 268 268 269 257 236 238 233 213 201 197 199 196 186 179 175 173 172 169 165 163 162 160 160 161 161 162 162 161 161 162 165 168 173 182 197 214 238 254 265 268 267 268 266 265 264 262 263 266 270 275 279 284 289 292 295 298 299 300 301 301 302 303
273 278 280 278 260 230 232 228 208 200 201 202 201 199 194 189 186 184 182 180 178 177 178 179 180 181 182 182 184 186 189 193 199 206 216 228 243 255 262 268 272 275 277 279 282 283 281 279 277 276 277 277 281 286 292 297 299 301 302 301 300 300 300
280 283 284 276 250 219 215 214 206 204 206 206 208 210 208 204 201 198 195 193 192 190 190 191 193 195 197 199 202 206 210 215 220 224 229 234 240 248 257 264 269 274 278 281 285 288 290 290 288 286 283 280 281 286 292 296 299 301 303 303 303 303 302
277 275 271 264 242 217 208 207 210 213 214 214 216 218 218 217 214 212 209 205 204 204 204 204 204 205 207 209 212 215 219 224 229 234 240 244 248 250 253 259 266 272 276 278 280 283 285 287 290 290 289 287 286 289 292 295 298 300 302 303 304 305 306
272 268 263 255 237 220 211 210 215 219 220 221 223 226 228 227 225 223 220 217 215 215 215 217 217 217 217 220 223 224 225 229 235 242 249 256 264 267 267 268 270 271 274 276 277 278 281 284 288 291 291 291 291 292 295 297 300 301 301 302 303 303 303
270 268 264 255 239 224 216 216 218 222 224 225 226 230 234 235 234 230 228 227 226 225 224 224 226 227 227 228 229 231 233 236 241 247 254 261 268 272 274 275 274 274 278 278 273 274 280 285 289 290 290 291 293 296 299 302 303 302 302 301 301 300 300
270 270 267 259 246 231 223 222 224 226 227 228 229 232 236 240 241 238 235 233 231 231 231 230 231 233 233 234 236 238 238 241 245 248 253 259 264 268 272 274 274 277 281 282 279 279 282 284 286 288 289 289 292 296 301 302 302 302 300 300 300 300 301
267 268 268 263 255 243 231 228 230 232 233 233 234 236 239 242 244 242 239 237 236 236 233 231 232 234 237 240 242 243 244 247 249 252 254 259 264 268 271 273 274 276 277 279 281 281 281 283 285 287 288 289 293 297 299 300 299 298 297 298 298 300 301
261 264 265 264 261 255 244 236 235 236 237 238 238 241 244 246 246 245 241 237 237 240 238 236 237 239 240 243 245 248 252 254 255 256 259 264 269 271 272 272 272 272 273 275 278 279 282 284 285 287 290 293 297 299 299 300 299 298 298 298 299 301 303
256 258 261 261 261 260 255 249 244 242 243 243 243 244 246 248 250 251 248 241 237 240 243 243 243 242 239 240 244 249 254 257 258 260 262 266 269 269 269 270 271 272 274 276 278 281 284 285 287 291 294 297 299 300 300 300 300 300 300 301 303 305 306
254 255 257 258 259 260 258 255 253 252 251 250 250 249 249 250 252 255 255 250 242 241 243 244 244 243 239 239 244 250 253 254 255 257 260 261 262 261 262 267 272 275 277 279 281 282 284 286 289 292 294 296 297 298 299 299 300 301 303 304 307 308 309
253 253 255 257 260 262 261 258 255 255 255 255 256 257 256 256 256 256 256 253 246 242 243 244 246 248 247 244 246 250 252 252 251 253 256 256 256 257 260 266 271 274 278 281 282 284 285 287 289 290 292 293 294 295 296 297 298 300 303 305 307 308 308
252 252 254 256 259 260 261 260 258 256 256 257 258 259 257 256 256 257 256 254 249 244 241 241 245 249 247 242 241 243 247 249 248 248 250 250 252 257 263 268 273 275 278 280 281 282 283 284 286 288 289 290 292 293 294 295 297 299 301 303 304 305 305
253 249 250 253 255 257 259 260 259 257 256 257 255 253 251 250 251 253 255 255 253 245 238 237 239 240 236 233 236 241 244 244 243 243 246 250 256 263 270 275 278 279 280 281 281 281 282 284 285 287 288 289 290 292 293 295 296 298 300 301 301 302 302
260 253 250 250 252 255 257 258 258 256 255 253 250 245 243 243 244 246 247 247 245 240 238 240 239 233 230 232 238 241 241 241 242 247 253 260 268 273 278 281 283 284 284 284 285 285 285 285 286 287 288 289 290 291 293 295 296 298 299 300 300 300 300
263 258 256 254 252 253 255 256 255 253 248 243 240 239 238 238 239 239 239 238 237 235 235 237 234 230 232 235 237 238 240 244 250 257 264 270 274 277 280 283 285 286 286 286 286 286 286 286 286 287 288 289 291 292 294 296 297 298 299 299 299 299 299
264 262 261 259 255 253 253 253 251 246 239 233 232 234 236 237 236 236 235 234 232 232 232 232 231 232 234 235 236 240 246 253 259 264 268 271 275 279 282 285 286 287 287 287 288 287 287 287 286 287 289 290 292 293 294 296 296 297 297 297 297 297 298
264 263 261 260 256 252 250 248 244 238 232 230 232 234 236 237 237 236 236 234 234 234 235 235 235 236 237 239 243 249 254 258 262 265 268 273 277 281 284 285 287 288 289 289 290 291 290 290 291 292 293 294 294 295 295 296 297 297 297 297 297 298 298
264 263 261 258 255 251 247 243 240 237 235 235 237 238 239 240 240 239 238 236 235 235 235 236 238 240 243 246 251 255 258 261 263 267 272 277 280 282 284 286 287 289 291 292 294 294 295 295 296 296 296 296 297 297 298 298 298 298 298 298 298 299 299
260 260 259 257 255 252 248 243 241 241 241 242 242 242 241 242 243 243 241 238 236 236 236 237 239 242 246 250 254 257 259 263 266 270 274 277 280 283 285 288 289 290 292 293 294 295 295 296 296 296 296 297 297 298 298 298 298 298 298 299 299 299 299
254 254 256 256 256 255 252 249 246 245 246 249 249 248 246 245 244 243 241 238 238 237 238 238 240 243 247 250 254 257 261 265 267 271 274 276 280 283 286 289 291 291 291 292 293 293 293 294 294 295 296 297 297 297 298 298 299 299 298 298 298 298 298
252 250 252 253 255 256 256 255 253 250 251 252 253 253 252 250 248 245 242 240 239 238 238 239 241 244 247 251 256 259 263 266 269 272 275 278 281 284 288 290 291 290 290 290 290 291 291 292 293 294 295 295 296 296 297 297 298 298 298 298 298 297 297
255 251 248 249 251 254 255 256 255 253 252 252 253 253 251 248 246 242 239 237 238 239 241 242 244 247 251 254 258 261 264 268 271 274 276 278 282 285 288 290 290 289 289 288 288 288 288 289 291 292 293 294 294 295 295 296 296 297 297 298 297 297 297
Height
3151 3150 3149 3149 3148 3147 3146 3146 3145 3144 3143 3142 3141 3140 3140 3140 3140 3140 3140 3140 3140 3141 3141 3141 3142 3143 3143 3144 3145 3145 3145 3146 3147 3148 3149 3149 3150 3151 3151 3153 3154 3155 3155 3156 3157 3158 3159 3159 3159 3159 3159 3159 3160 3160 3160 3160 3160 3160 3160 3160 3161 3161 3161
3150 3149 3149 3148 3147 3146 3145 3145 3144 3143 3142 3141 3140 3139 3139 3139 3139 3139 3140 3140 3140 3140 3140 3140 3141 3142 3142 3143 3143 3143 3144 3144 3146 3147 3147 3148 3148 3149 3150 3151 3152 3153 3154 3155 3156 3157 3157 3157 3157 3157 3158 3158 3158 3158 3158 3158 3158 3158 3158 3159 3159 3159 3159
3148 3148 3148 3147 3147 3146 3145 3144 3143 3142 3142 3141 3140 3139 3138 3138 3138 3138 3139 3139 3139 3139 3140 3140 3140 3141 3141 3142 3142 3142 3143 3143 3144 3145 3146 3146 3147 3148 3149 3150 3151 3152 3153 3154 3155 3156 3156 3155 3156 3156 3156 3156 3156 3156 3156 3157 3157 3157 3157 3157 3157 3158 3158
3147 3147 3147 3146 3146 3145 3144 3144 3143 3142 3141 3140 3139 3139 3138 3138 3137 3138 3138 3138 3138 3138 3139 3139 3139 3140 3140 3141 3141 3141 3142 3142 3143 3144 3144 3145 3146 3147 3148 3149 3150 3151 3152 3153 3153 3154 3154 3154 3154 3155 3155 3155 3155 3155 3155 3156 3156 3156 3156 3156 3156 3156 3156
3147 3146 3146 3146 3145 3144 3143 3142 3142 3142 3140 3139 3138 3138 3137 3137 3137 3137 3137 3138 3138 3138 3138 3138 3138 3139 3139 3140 3141 3141 3141 3142 3142 3143 3144 3144 3145 3146 3147 3148 3149 3150 3150 3151 3152 3152 3152 3153 3153 3154 3154 3153 3154 3154 3155 3155 3155 3155 3155 3155 3155 3155 3155
3145 3145 3145 3144 3144 3143 3142 3141 3141 3141 3140 3139 3137 3136 3136 3136 3136 3136 3137 3137 3137 3137 3138 3138 3138 3139 3139 3140 3140 3141 3141 3142 3142 3143 3143 3144 3145 3146 3146 3147 3148 3148 3149 3150 3150 3151 3151 3151 3152 3152 3153 3153 3153 3154 3154 3154 3154 3154 3154 3154 3154 3154 3154
3143 3143 3143 3142 3142 3142 3141 3140 3139 3140 3139 3138 3137 3136 3135 3135 3135 3135 3136 3136 3136 3137 3137 3137 3138 3138 3139 3139 3140 3140 3141 3142 3142 3143 3143 3144 3145 3145 3146 3146 3147 3147 3148 3149 3149 3150 3150 3151 3151 3152 3152 3152 3153 3153 3154 3154 3154 3153 3153 3153 3153 3153 3153
3141 3141 3141 3140 3140 3140 3140 3139 3138 3138 3138 3137 3136 3136 3135 3135 3135 3135 3135 3135 3135 3136 3136 3137 3137 3138 3138 3139 3140 3140 3141 3141 3142 3142 3143 3144 3144 3145 3145 3146 3146 3147 3148 3148 3149 3149 3150 3150 3151 3151 3152 3152 3153 3153 3153 3153 3153 3153 3153 3152 3152 3152 3152
3138 3139 3138 3138 3137 3138 3139 3138 3137 3137 3137 3137 3136 3135 3135 3135 3135 3135 3135 3135 3135 3135 3136 3136 3137 3137 3138 3139 3140 3140 3141 3142 3142 3143 3143 3144 3144 3145 3146 3146 3147 3147 3148 3148 3149 3149 3150 3150 3151 3151 3151 3152 3152 3153 3153 3153 3152 3152 3152 3152 3152 3152 3152
3135 3135 3135 3135 3136 3137 3137 3137 3137 3137 3136 3136 3136 3135 3135 3135 3135 3135 3135 3135 3135 3136 3136 3136 3137 3137 3138 3139 3140 3140 3141 3142 3143 3143 3144 3145 3145 3146 3147 3147 3148 3148 3149 3149 3149 3150 3150 3150 3151 3151 3151 3152 3152 3152 3152 3152 3152 3151 3151 3151 3151 3151 3151
3132 3133 3133 3133 3134 3135 3135 3136 3136 3136 3136 3136 3136 3135 3135 3135 3135 3135 3135 3136 3136 3136 3137 3137 3137 3138 3138 3139 3140 3141 3142 3143 3143 3144 3145 3146 3146 3147 3148 3148 3149 3149 3149 3150 3150 3150 3150 3150 3151 3151 3151 3151 3151 3151 3151 3151 3151 3151 3150 3150 3149 3149 3149
3130 3131 3131 3131 3133 3134 3134 3135 3136 3135 3135 3135 3135 3135 3135 3135 3136 3136 3136 3136 3136 3137 3137 3137 3138 3138 3139 3139 3140 3141 3142 3143 3144 3145 3146 3146 3147 3148 3148 3149 3149 3150 3150 3150 3150 3150 3151 3151 3151 3151 3151 3151 3151 3151 3151 3151 3150 3150 3150 3149 3149 3149 3148
3128 3128 3128 3129 3131 3132 3133 3134 3135 3135 3135 3135 3135 3135 3136 3136 3136 3136 3137 3137 3137 3137 3138 3138 3139 3139 3139 3140 3141 3141 3142 3143 3144 3145 3146 3147 3147 3148 3148 3149 3149 3150 3150 3150 3151 3151 3151 3151 3151 3151 3151 3150 3150 3150 3150 3150 3150 3149 3149 3149 3149 3148 3148
3126 3126 3127 3128 3129 3129 3131 3133 3133 3134 3134 3135 3135 3136 3136 3137 3137 3137 3137 3138 3138 3138 3139 3139 3139 3140 3140 3140 3141 3141 3142 3143 3143 3144 3145 3146 3147 3147 3148 3148 3149 3149 3149 3150 3150 3150 3151 3151 3151 3151 3150 3150 3150 3150 3150 3149 3149 3149 3148 3148 3148 3147 3147
3124 3125 3125 3126 3127 3128 3129 3131 3131 3132 3133 3134 3136 3136 3136 3137 3137 3137 3137 3138 3138 3139 3139 3139 3140 3140 3140 3140 3141 3141 3141 3142 3142 3143 3144 3144 3145 3146 3146 3147 3147 3148 3148 3148 3149 3149 3150 3150 3150 3150 3150 3149 3149 3149 3149 3148 3148 3148 3147 3147 3146 3146 3145
3122 3123 3123 3124 3125 3126 3127 3128 3130 3131 3132 3133 3135 3136 3137 3137 3137 3137 3137 3137 3137 3138 3138 3139 3139 3140 3140 3140 3140 3141 3141 3141 3142 3142 3143 3143 3144 3144 3145 3145 3146 3146 3146 3147 3147 3147 3148 3148 3148 3148 3148 3148 3148 3148 3147 3147 3146 3146 3146 3145 3145 3144 3144
3121 3122 3122 3122 3123 3124 3126 3127 3128 3130 3131 3132 3134 3135 3136 3136 3137 3136 3136 3136 3137 3137 3137 3137 3138 3139 3139 3139 3140 3140 3140 3141 3141 3141 3142 3142 3142 3143 3143 3144 3144 3145 3145 3145 3145 3145 3146 3146 3146 3146 3146 3146 3146 3146 3146 3145 3145 3144 3144 3143 3143 3142 3142
3120 3121 3121 3121 3121 3122 3124 3125 3127 3128 3129 3131 3132 3133 3134 3135 3135 3135 3135 3136 3136 3136 3136 3137 3137 3137 3138 3138 3138 3139 3139 3140 3140 3141 3141 3141 3142 3142 3142 3142 3143 3143 3143 3143 3143 3143 3143 3143 3143 3143 3143 3143 3143 3143 3143 3143 3143 3142 3142 3141 3141 3140 3140
3119 3119 3119 3119 3120 3120 3121 3123 3125 3126 3127 3129 3130 3131 3132 3132 3133 3133 3133 3134 3134 3135 3136 3136 3137 3137 3137 3137 3137 3138 3138 3139 3139 3140 3140 3140 3141 3141 3141 3141 3141 3141 3141 3141 3141 3141 3141 3141 3141 3141 3141 3141 3140 3140 3140 3140 3140 3140 3139 3139 3138 3138 3137
3117 3117 3118 3118 3118 3119 3119 3121 3122 3124 3125 3126 3127 3128 3129 3130 3130 3131 3131 3132 3133 3134 3134 3135 3135 3136 3136 3136 3136 3137 3137 3137 3137 3138 3138 3138 3139 3139 3139 3139 3139 3139 3138 3138 3139 3139 3138 3138 3138 3139 3138 3138 3138 3138 3138 3138 3138 3137 3136 3136 3135 3135 3134
3115 3115 3116 3116 3116 3117 3117 3118 3120 3121 3122 3123 3124 3125 3126 3127 3127 3128 3129 3130 3131 3132 3133 3133 3133 3133 3134 3134 3134 3135 3135 3135 3135 3135 3136 3136 3136 3137 3137 3137 3137 3137 3136 3137 3137 3136 3136 3136 3136 3136 3136 3136 3136 3136 3136 3135 3135 3134 3133 3132 3132 3131 3130
3113 3113 3113 3114 3114 3115 3116 3116 3117 3118 3119 3120 3122 3122 3123 3123 3124 3125 3126 3128 3129 3130 3130 3130 3131 3131 3132 3132 3132 3132 3132 3133 3133 3133 3133 3134 3134 3134 3134 3134 3134 3134 3134 3134 3134 3134 3134 3133 3133 3133 3132 3132 3133 3133 3132 3132 3132 3131 3130 3129 3128 3127 3126
3111 3111 3111 3112 3112 3113 3113 3114 3115 3115 3116 3118 3119 3119 3119 3120 3120 3121 3123 3125 3126 3126 3126 3127 3128 3128 3129 3129 3130 3130 3130 3130 3131 3131 3131 3132 3131 3131 3132 3132 3131 3131 3131 3131 3131 3131 3131 3130 3130 3129 3129 3129 3129 3129 3128 3128 3128 3127 3126 3124 3123 3123 3123
3108 3109 3109 3109 3110 3110 3111 3111 3111 3112 3113 3114 3115 3116 3116 3116 3117 3118 3119 3121 3123 3123 3123 3123 3124 3125 3126 3126 3126 3126 3127 3127 3128 3128 3129 3129 3129 3129 3129 3129 3128 3128 3128 3129 3129 3129 3128 3127 3127 3126 3126 3126 3126 3125 3124 3124 3123 3122 3121 3120 3119 3119 3119
3106 3106 3106 3107 3107 3107 3108 3108 3108 3109 3110 3110 3111 3111 3112 3112 3113 3113 3114 3115 3117 3119 3119 3120 3120 3121 3122 3123 3123 3123 3124 3125 3125 3126 3126 3126 3127 3127 3127 3126 3126 3126 3126 3126 3126 3126 3126 3125 3124 3124 3123 3123 3122 3122 3121 3120 3119 3118 3117 3116 3116 3115 3114
3103 3103 3103 3103 3104 3104 3105 3105 3105 3105 3106 3106 3107 3107 3108 3108 3108 3109 3109 3110 3111 3113 3115 3116 3116 3117 3118 3120 3120 3120 3121 3122 3123 3123 3123 3124 3125 3125 3125 3124 3124 3124 3124 3124 3124 3124 3123 3122 3122 3121 3121 3120 3119 3119 3118 3117 3116 3115 3114 3113 3112 3111 3110
3100 3100 3100 3100 3101 3101 3101 3102 3102 3102 3102 3102 3103 3103 3103 3104 3104 3104 3105 3105 3106 3108 3109 3111 3112 3113 3114 3116 3117 3118 3118 3119 3120 3120 3121 3121 3122 3122 3122 3122 3122 3122 3122 3122 3122 3121 3121 3120 3119 3118 3118 3117 3116 3115 3115 3114 3113 3112 3112 3110 3109 3108 3107
3097 3097 3097 3097 3098 3098 3098 3098 3099 3099 3099 3099 3099 3100 3100 3101 3101 3101 3102 3102 3103 3104 3104 3106 3108 3110 3111 3112 3114 3115 3116 3116 3117 3117 3118 3119 3119 3119 3119 3119 3119 3119 3119 3119 3118 3118 3118 3117 3116 3116 3115 3114 3113 3113 3112 3111 3110 3110 3108 3107 3106 3104 3103
3095 3095 3095 3095 3095 3095 3095 3096 3096 3096 3096 3097 3097 3097 3098 3098 3099 3099 3099 3100 3101 3101 3102 3104 3107 3107 3108 3109 3111 3112 3113 3114 3114 3115 3115 3115 3116 3116 3116 3116 3116 3116 3116 3115 3115 3114 3114 3114 3113 3113 3112 3111 3110 3109 3109 3108 3107 3106 3105 3103 3102 3100 3099
3091 3092 3092 3092 3092 3092 3092 3093 3093 3093 3094 3094 3094 3095 3095 3096 3096 3097 3098 3099 3099 3099 3100 3102 3104 3105 3106 3107 3108 3109 3110 3111 3112 3112 3112 3112 3113 3113 3113 3113 3113 3112 3112 3112 3111 3111 3111 3111 3110 3109 3108 3108 3107 3106 3105 3104 3103 3102 3100 3099 3097 3096 3094
3087 3088 3088 3088 3088 3088 3089 3089 3090 3090 3091 3091 3092 3092 3093 3093 3094 3095 3095 3096 3097 3097 3097 3099 3100 3102 3103 3104 3106 3107 3107 3108 3109 3109 3109 3110 3110 3110 3109 3109 3109 3109 3109 3108 3108 3108 3107 3107 3106 3106 3105 3104 3103 3102 3101 3100 3098 3097 3095 3094 3092 3091 3089
3083 3084 3084 3084 3084 3085 3085 3086 3087 3087 3088 3088 3089 3090 3090 3091 3091 3092 3093 3094 3094 3095 3095 3096 3098 3099 3101 3102 3103 3104 3104 3105 3106 3106 3107 3107 3106 3106 3106 3106 3106 3106 3105 3105 3104 3104 3103 3103 3102 3102 3101 3100 3099 3097 3096 3095 3093 3092 3090 3089 3087 3085 3084
3079 3080 3080 3080 3080 3081 3082 3083 3083 3084 3085 3085 3086 3086 3087 3088 3089 3089 3090 3091 3092 3093 3094 3095 3096 3097 3098 3099 3100 3101 3101 3102 3103 3103 3103 3103 3103 3103 3103 3103 3103 3102 3102 3101 3101 3100 3099 3099 3098 3098 3097 3095 3094 3093 3091 3090 3088 3086 3085 3083 3082 3080 3079
3075 3076 3076 3076 3077 3077 3078 3079 3080 3081 3081 3082 3083 3083 3084 3085 3086 3087 3088 3089 3090 3091 3091 3092 3093 3094 3095 3096 3097 3097 3098 3099 3099 3100 3100 3100 3101 3100 3100 3100 3100 3099 3098 3098 3097 3096 3096 3095 3094 3094 3092 3091 3090 3088 3086 3085 3083 3081 3080 3078 3077 3075 3074
3071 3072 3072 3073 3073 3074 3074 3075 3076 3077 3078 3078 3079 3080 3081 3081 3083 3084 3084 3085 3086 3087 3088 3089 3090 3091 3092 3093 3093 3094 3095 3095 3096 3097 3097 3097 3097 3097 3097 3096 3096 3095 3095 3094 3094 3093 3092 3091 3090 3090 3089 3087 3086 3084 3082 3080 3078 3077 3075 3074 3072 3071 3069
3066 3067 3068 3069 3069 3069 3070 3071 3072 3073 3074 3074 3075 3076 3077 3078 3079 3080 3081 3082 3083 3084 3085 3085 3086 3087 3088 3089 3089 3090 3091 3091 3092 3093 3093 3093 3093 3093 3093 3092 3092 3091 3091 3090 3090 3089 3088 3087 3087 3086 3085 3083 3082 3080 3078 3076 3075 3073 3071 3069 3068 3066 3065
3061 3062 3063 3064 3065 3065 3065 3066 3067 3068 3070 3071 3072 3072 3073 3074 3076 3077 3078 3078 3079 3080 3081 3082 3083 3083 3084 3085 3086 3086 3087 3087 3088 3088 3088 3089 3089 3088 3088 3088 3088 3088 3087 3086 3086 3085 3084 3084 3083 3082 3081 3079 3078 3076 3074 3073 3071 3069 3067 3065 3064 3062 3060